Location: Chuathbaluk
(61.5726°N, 159.2454°W)
Time: 18:23:50
(UTC+00:00)

Tiros 1 - All Passes

Search period start: 04 December 2020 00:00
Search period end: 14 December 2020 00:00
Orbit: 630 x 664 km, 48.4° (Epoch: 03 December)

Date Brightness Start Highest point End Pass type
(mag) Time Alt. Az. Time Alt. Az. Time Alt. Az.
04 Dec - 01:00:41 10° S 01:02:34 12° SSE 01:04:27 10° SE daylight
04 Dec - 02:40:23 10° SW 02:43:26 17° S 02:46:30 10° SE visible
04 Dec - 04:21:58 10° SW 04:24:21 14° SSW 04:26:44 10° SSE visible
05 Dec - 01:25:10 10° SSW 01:27:55 15° SSE 01:30:40 10° SE daylight
05 Dec - 03:05:54 10° SW 03:08:51 16° S 03:11:50 10° SSE visible
05 Dec - 04:49:18 10° SSW 04:49:40 10° SSW 04:50:01 10° SSW visible
06 Dec - 00:10:45 10° S 00:12:28 12° SSE 00:14:12 10° SE daylight
06 Dec - 01:50:17 10° SW 01:53:20 17° S 01:56:23 10° SE daylight
06 Dec - 03:31:46 10° SW 03:34:15 14° SSW 03:36:44 10° SSE visible
07 Dec - 00:35:07 10° SSW 00:37:49 15° SSE 00:40:32 10° SE daylight
07 Dec - 02:15:45 10° SW 02:18:45 17° S 02:21:46 10° SSE visible
07 Dec - 03:58:36 10° SW 03:59:35 11° SSW 04:00:33 10° SSW visible
07 Dec - 23:20:52 10° S 23:22:23 11° SSE 23:23:54 10° SE daylight
08 Dec - 01:00:11 10° SW 01:03:15 17° S 01:06:17 10° SE daylight
08 Dec - 02:41:35 10° SW 02:44:09 14° SSW 02:46:44 10° SSE visible
08 Dec - 23:45:05 10° SSW 23:47:43 15° SSE 23:50:22 10° SE daylight
09 Dec - 01:25:37 10° SW 01:28:39 17° S 01:31:42 10° SE daylight
09 Dec - 03:08:11 10° SW 03:09:29 11° SSW 03:10:48 10° S visible
09 Dec - 22:31:00 10° S 22:32:18 11° SSE 22:33:35 10° SE daylight
10 Dec - 00:10:06 10° SSW 00:13:08 17° S 00:16:09 10° SE daylight
10 Dec - 01:51:24 10° SW 01:54:03 15° SSW 01:56:43 10° SSE daylight
10 Dec - 22:55:03 10° SSW 22:57:37 14° SSE 23:00:12 10° SE daylight
11 Dec - 00:35:30 10° SW 00:38:33 17° S 00:41:36 10° SE daylight
11 Dec - 02:17:51 10° SW 02:19:24 11° SSW 02:20:58 10° S visible
11 Dec - 21:41:16 10° SSE 21:42:12 11° SSE 21:43:09 10° SE daylight
11 Dec - 23:20:01 10° SSW 23:23:01 17° S 23:26:02 10° SE daylight
12 Dec - 01:01:14 10° SW 01:03:57 15° SSW 01:06:41 10° SSE daylight
12 Dec - 22:05:02 10° SSW 22:07:31 14° SSE 22:10:01 10° SE daylight
12 Dec - 23:45:23 10° SW 23:48:27 17° S 23:51:31 10° SE daylight
13 Dec - 01:27:34 10° SW 01:29:18 12° SSW 01:31:04 10° S daylight
13 Dec - 20:51:47 10° SSE 20:52:07 10° SSE 20:52:27 10° SSE daylight
13 Dec - 22:29:56 10° SSW 22:32:55 16° S 22:35:54 10° SE daylight
